WA9AFM-10 Weather Reports


Display with metric or nautical units.
time (UTC)temp
F
wind
direction
speed
MPH
gust
MPH
rain 1hr
in
rain 24hr
in
rain mn
in
humidity
%
barometer
mb
20260502162114 68 51 0.0 10.0 0.00 0.00 0.00 48 1016.6
20260502152113 65 57 0.0 10.0 0.00 0.00 0.00 53 1016.9
20260502122113 50 310 0.0 10.0 0.00 0.00 0.00 72 1016.4
20260502112114 52 320 0.0 10.0 0.00 0.00 0.00 68 1016.0
20260502105113 53 225 0.0 10.0 0.00 0.00 0.00 67 1016.4
20260502065114 49 298 0.0 10.0 0.00 0.00 0.00 72 1014.7
20260502062113 50 298 0.0 10.0 0.00 0.00 0.00 70 1015.0
20260502055113 52 298 0.0 10.0 0.00 0.00 0.00 65 1015.0
20260502052114 53 296 0.0 10.0 0.00 0.00 0.00 64 1014.9
20260502045113 54 296 0.0 10.0 0.00 0.00 0.00 61 1014.8
20260502035113 57 296 0.0 10.0 0.00 0.00 0.00 56 1014.7
20260502032113 58 292 0.0 10.0 0.00 0.00 0.00 55 1014.6
20260502025113 58 210 0.0 10.0 0.00 0.00 0.00 55 1014.5
20260502022114 59 210 0.0 10.0 0.00 0.00 0.00 56 1014.2
20260502015113 60 210 0.0 10.0 0.00 0.00 0.00 52 1013.9
20260502012114 63 210 0.0 10.0 0.00 0.00 0.00 45 1013.4
20260502005112 65 283 0.0 10.0 0.00 0.00 0.00 42 1013.0
20260502002114 66 210 0.0 10.0 0.00 0.00 0.00 40 1012.8
20260501235113 67 207 3.0 10.0 0.00 0.00 0.00 38 1012.6
20260501232114 67 207 0.0 10.0 0.00 0.00 0.00 38 1012.4
20260501225112 69 225 0.0 10.0 0.00 0.00 0.00 41 1012.3
20260501222114 69 206 0.0 10.0 0.00 0.00 0.00 41 1012.2
20260501212113 71 183 0.0 10.0 0.00 0.00 0.00 38 1012.0
20260501205113 70 193 3.0 10.0 0.00 0.00 0.00 35 1012.5
20260501202114 70 215 2.0 10.0 0.00 0.00 0.00 36 1012.8